Location: Carr
(35.6904°N, 90.5179°W)
Time: 10:34:29
(UTC+00:00)

ACS3 Solar Sail - Visible Passes

Search period start: 11 June 2026 00:00
Search period end: 21 June 2026 00:00
Orbit: 873 x 957 km, 97.2° (Epoch: 10 June)

Date Brightness Start Highest point End Pass type
(mag) Time Alt. Az. Time Alt. Az. Time Alt. Az.
11 Jun 1.7 06:31:29 10° N 06:36:41 74° N 06:36:41 74° N visible
11 Jun 3.9 08:18:02 10° WNW 08:18:34 10° WNW 08:19:06 10° WNW visible
12 Jun 3.8 04:59:01 10° ENE 05:00:27 12° ENE 05:00:27 12° ENE visible
12 Jun 1.7 06:38:31 10° N 06:43:48 69° NW 06:43:48 69° NW visible
13 Jun 3.7 05:05:17 10° NE 05:07:33 15° ENE 05:07:33 15° ENE visible
13 Jun 1.9 06:45:33 10° N 06:50:55 61° WNW 06:50:55 61° WNW visible
14 Jun 3.5 05:11:45 10° NE 05:14:38 18° ENE 05:14:38 18° ENE visible
14 Jun 2.0 06:52:35 10° N 06:58:00 52° WNW 06:58:00 52° WNW visible
15 Jun 3.3 05:18:20 10° NE 05:21:42 21° ENE 05:21:42 21° ENE visible
15 Jun 2.2 06:59:39 10° N 07:05:04 45° WNW 07:05:04 45° WNW visible
16 Jun 3.1 05:24:58 10° NE 05:28:46 25° ENE 05:28:46 25° ENE visible
16 Jun 2.5 07:06:43 10° N 07:12:00 38° WNW 07:12:07 38° WNW visible
17 Jun 2.9 05:31:41 10° NNE 05:35:48 29° ENE 05:35:48 29° ENE visible
17 Jun 2.7 07:13:49 10° N 07:18:53 33° WNW 07:19:10 33° WNW visible
18 Jun 2.7 05:38:25 10° NNE 05:42:50 34° ENE 05:42:50 34° ENE visible
18 Jun 2.9 07:20:55 10° NNW 07:25:45 28° WNW 07:26:11 28° WNW visible
19 Jun 2.5 05:45:11 10° NNE 05:49:50 40° ENE 05:49:50 40° ENE visible
19 Jun 3.1 07:28:02 10° NNW 07:32:36 24° WNW 07:33:12 24° WNW visible
20 Jun 2.3 05:51:57 10° NNE 05:56:50 47° ENE 05:56:50 47° ENE visible
20 Jun 3.3 07:35:13 10° NNW 07:39:24 21° WNW 07:40:11 20° WNW visible
